Location: Kimberly
(42.5380°N, 114.3640°W)
Time: 12:39:12
(UTC-06:00)

Envisat - Visible Passes

Search period start: 18 October 2018 00:00
Search period end: 28 October 2018 00:00
Orbit: 764 x 766 km, 98.2° (Epoch: 18 October)

Date Brightness Start Highest point End Pass type
(mag) Time Alt. Az. Time Alt. Az. Time Alt. Az.
18 Oct 3.0 20:10:59 10° SSE 20:15:55 56° ENE 20:20:54 10° N visible
18 Oct 5.5 21:51:57 10° SW 21:55:18 18° W 21:58:39 10° NW visible
19 Oct 3.9 19:35:14 10° ESE 19:39:26 27° ENE 19:43:38 10° N visible
19 Oct 4.3 21:13:34 10° SSW 21:18:16 38° W 21:23:00 10° NNW visible
20 Oct 3.0 20:36:21 10° SSE 20:41:25 84° WSW 20:46:32 10° NNW visible
21 Oct 3.3 20:00:00 10° SE 20:04:47 45° ENE 20:09:37 10° N visible
21 Oct 5.2 21:40:07 10° SW 21:44:00 22° W 21:47:56 10° NW visible
22 Oct 4.2 19:24:32 10° ESE 19:28:22 22° ENE 19:32:10 10° NNE visible
22 Oct 3.9 21:02:09 10° S 21:07:01 48° W 21:11:57 10° NNW visible
23 Oct 2.8 20:25:12 10° SSE 20:30:15 78° ENE 20:35:21 10° N visible
23 Oct 5.9 22:07:46 10° WSW 22:09:51 12° W 22:11:57 10° WNW visible
24 Oct 3.5 19:49:05 10° SE 19:53:40 36° ENE 19:58:17 10° N visible
24 Oct 4.9 21:28:26 10° SSW 21:32:44 28° W 21:37:04 10° NW visible
25 Oct 4.4 19:13:58 10° ESE 19:17:18 18° ENE 19:20:37 10° NNE visible
25 Oct 3.4 20:50:49 10° S 20:55:49 61° W 21:00:52 10° NNW visible
26 Oct 2.9 20:14:06 10° SSE 20:19:06 62° ENE 20:24:07 10° N visible
26 Oct 5.6 21:55:28 10° SW 21:58:32 16° W 22:01:37 10° NW visible
27 Oct 3.8 19:38:15 10° SE 19:42:34 29° ENE 19:46:55 10° N visible
27 Oct 4.5 21:16:52 10° SSW 21:21:28 35° W 21:26:06 10° NNW visible
